Flag for U.S.A. Weather past 2 weeks in Freehold, New Jersey, U.S.A.

Now
66 °F

Passing clouds.


Feels Like: 66 °F
Forecast: 47 / 67 °F
Wind: 9 mph from Northwest

Location: Belmar-Farmdale

Current Time: May 22, 2015 at 8:01:46 PM

Latest Report: May 22, 2015 at 7:35 PM


Visibility: 10 mi

Pressure: 30.01 "Hg

Humidity: 40%

Dew point: 41 °F

Location of FreeholdLocation

Historic Weather in Freehold — Graph

°F

Freehold temperature yesterday

Maximum temperature yesterday: 57 °F (at 9:35 AM)
Minimum temperature yesterday: 48 °F (at 6:15 AM)
Average temperature yesterday: 52 °F

Past Weeks' High & Low Weather Summary

 TemperatureHumidityPressure
High86 °F (May 12, 2:15 PM)88% (May 9, 1:55 AM)30.41 "Hg (May 9, 1:55 AM)
Low45 °F (May 14, 5:15 AM)26% (May 14, 1:15 PM)29.78 "Hg (May 19, 10:55 PM)
Average64 °F64%30.10 "Hg
* Reported May 7 6:15 PM — May 22 6:55 PM, Freehold, Weather by CustomWeather, © 2015

Note: Actual official high and low records may vary slightly from our data, if they occured in-between our weather recording intervals... More about our weather records

Advertising

Freehold weather history for previous 24 hours

 ConditionsComfort  
Time TempWeatherWind HumidityBarometerVisibility
6:55 PM
Fri, May 22
66 °FOvercast.13 mph40%30.00 "Hg10 mi
6:35 PM68 °FOvercast.20 mph35%29.99 "Hg10 mi
6:15 PM72 °FPartly sunny.15 mph33%29.97 "Hg10 mi
5:55 PM72 °FBroken clouds.15 mph33%29.97 "Hg10 mi
5:35 PM73 °FScattered clouds.12 mph33%29.96 "Hg10 mi
5:15 PM73 °FPassing clouds.17 mph33%29.96 "Hg10 mi
4:55 PM73 °FScattered clouds.17 mph33%29.96 "Hg10 mi
4:35 PM73 °FPartly sunny.17 mph33%29.96 "Hg10 mi
4:15 PM73 °FPartly sunny.18 mph33%29.96 "Hg10 mi
3:55 PM72 °FScattered clouds.17 mph36%29.95 "Hg10 mi
3:35 PM73 °FScattered clouds.16 mph33%29.95 "Hg10 mi
3:15 PM73 °FBroken clouds.17 mph33%29.96 "Hg10 mi
2:55 PM72 °FMostly cloudy.18 mph36%29.95 "Hg10 mi
2:35 PM72 °FBroken clouds.16 mph38%29.95 "Hg10 mi
2:15 PM72 °FBroken clouds.15 mph36%29.95 "Hg10 mi
1:55 PM72 °FBroken clouds.17 mph36%29.95 "Hg10 mi
1:35 PM72 °FPartly sunny.13 mph38%29.95 "Hg10 mi
1:15 PM70 °FPartly sunny.12 mph40%29.95 "Hg10 mi
12:55 PM70 °FScattered clouds.16 mph40%29.95 "Hg10 mi
12:35 PM70 °FSunny.16 mph40%29.96 "Hg10 mi
12:15 PM70 °FSunny.12 mph38%29.96 "Hg10 mi
11:55 AM68 °FSunny.12 mph43%29.96 "Hg10 mi
11:35 AM66 °FSunny.13 mph46%29.97 "Hg10 mi
11:15 AM66 °FSunny.13 mph46%29.97 "Hg10 mi
10:55 AM66 °FSunny.10 mph46%29.97 "Hg10 mi
10:35 AM64 °FSunny.12 mph49%29.97 "Hg10 mi
10:15 AM63 °FSunny.10 mph52%29.96 "Hg10 mi
9:55 AM61 °FSunny.12 mph55%29.96 "Hg10 mi
9:35 AM61 °FSunny.9 mph55%29.96 "Hg10 mi
8:55 AM57 °FSunny.10 mph63%29.95 "Hg10 mi
8:35 AM57 °FSunny.9 mph63%29.95 "Hg10 mi
8:15 AM55 °FSunny.8 mph67%29.94 "Hg10 mi
7:55 AM54 °FSunny.8 mph72%29.94 "Hg10 mi
7:35 AM54 °FSunny.8 mph72%29.93 "Hg10 mi
7:15 AM52 °FSunny.9 mph72%29.93 "Hg10 mi
6:55 AM52 °FSunny.7 mph72%29.92 "Hg10 mi
6:15 AM50 °FClear.9 mph76%29.91 "Hg9 mi
5:55 AM50 °FPassing clouds.8 mph76%29.90 "Hg8 mi
5:35 AM50 °FOvercast.7 mph76%29.89 "Hg8 mi
5:15 AM50 °FOvercast.8 mph76%29.88 "Hg8 mi
4:55 AM50 °FOvercast.8 mph76%29.88 "Hg8 mi
4:35 AM50 °FOvercast.7 mph76%29.87 "Hg7 mi
4:15 AM50 °FOvercast.5 mph82%29.87 "Hg5 mi
3:35 AM52 °FOvercast.6 mph77%29.86 "Hg4 mi
3:15 AM52 °FOvercast.3 mph77%29.87 "Hg3 mi
2:55 AM52 °FOvercast.6 mph77%29.86 "Hg4 mi
2:15 AM50 °FOvercast.3 mph82%29.87 "Hg5 mi
1:55 AM50 °FOvercast.No wind82%29.88 "Hg5 mi
1:35 AM50 °FMostly cloudy.3 mph82%29.88 "Hg6 mi
1:15 AM50 °FMostly cloudy.3 mph82%29.88 "Hg6 mi
12:55 AM50 °FMostly cloudy.3 mph82%29.89 "Hg9 mi
12:35 AM50 °FMostly cloudy.5 mph82%29.89 "Hg8 mi
12:15 AM50 °FMostly cloudy.3 mph82%29.89 "Hg7 mi
11:55 PM
Thu, May 21
50 °FOvercast.No wind82%29.89 "Hg10 mi
11:35 PM50 °FOvercast.No wind82%29.89 "Hg10 mi
11:15 PM52 °FOvercast.3 mph77%29.90 "Hg10 mi
10:55 PM50 °FOvercast.No wind76%29.91 "Hg10 mi
10:35 PM50 °FOvercast.No wind76%29.91 "Hg10 mi
10:15 PM50 °FOvercast.No wind76%29.92 "Hg10 mi
9:55 PM50 °FOvercast.No wind76%29.92 "Hg10 mi
9:35 PM50 °FOvercast.No wind76%29.93 "Hg10 mi
9:15 PM50 °FOvercast.No wind82%29.92 "Hg10 mi
8:55 PM50 °FOvercast.No wind82%29.93 "Hg10 mi
8:35 PM50 °FOvercast.3 mph76%29.94 "Hg7 mi
8:15 PM50 °FMostly cloudy.3 mph82%29.93 "Hg3 mi
Weather by CustomWeather, © 2015

See weather overviewHow to use our weather pages